Regional Weather Roundup
Issued by NWS

Home | Current Version | Previous Version | Graphics & Text | Print | Product List | Glossary On
Versions: 1 2 3 4 5 6 7 8 9 10 11 12 13 14 15 16 17 18 19 20 21 22 23 24 25 26 27 28 29 30 31 32 33 34 35 36 37 38 39 40 41 42 43 44 45 46 47 48 49 50
000
ASUS45 KBOI 250710
RWRID
WEATHER ROUNDUP FOR IDAHO
NATIONAL WEATHER SERVICE BOISE ID
1200 AM MST SUN JAN 25 2015

NOTE: "FAIR" INDICATES FEW OR NO CLOUDS BELOW 12000 FEET
WITH NO SIGNIFICANT WEATHER AND/OR OBSTRUCTIONS TO VISIBILITY

IDZ012-014-250800-
SOUTHWEST IDAHO


CITY           SKY/WX    TMP DP  RH WIND       PRES   REMARKS
BOISE          CLEAR     31  29  92 CALM      30.48R
CALDWELL       CLEAR     30  25  80 CALM      30.51R
MOUNTAIN HOME  CLEAR     30  28  91 E7        30.47R WCI  24
$$

IDZ016-017-250800-
SOUTHCENTRAL IDAHO


CITY           SKY/WX    TMP DP  RH WIND       PRES   REMARKS
BURLEY         CLOUDY    31  29  92 W3        30.42F
JEROME         PTCLDY    28  25  88 E3        30.45S
TWIN FALLS     PTCLDY    30  26  85 SE7       30.43F FOG     WCI  23
$$

IDZ019>023-250800-
SOUTHEAST IDAHO


CITY           SKY/WX    TMP DP  RH WIND       PRES   REMARKS
IDAHO FALLS    CLOUDY    27  24  89 CALM      30.45S
POCATELLO      CLOUDY    31  30  96 N3        30.46R
REXBURG        CLOUDY    26  26 100 CALM      30.45R FOG
$$

IDZ006-010-011-018-031-032-250800-
CENTRAL IDAHO MOUNTAINS


CITY           SKY/WX    TMP DP  RH WIND       PRES   REMARKS
MCCALL         CLOUDY    34  32  92 CALM      30.42R
HAILEY         CLEAR     23  21  93 NW8       30.44S WCI  14
STANLEY          N/A     32  28  85 SE3       30.44R
SALMON         CLOUDY    30  27  86 CALM      30.41R
CHALLIS        MOCLDY    32  29  88 CALM      30.39R
$$

IDZ002-004-006-007-026-250800-
NORTHERN IDAHO


CITY           SKY/WX    TMP DP  RH WIND       PRES   REMARKS
LEWISTON       PTCLDY    47  40  76 CALM      30.28S
LOWELL           N/A     36  35  96 N3        30.40R
COEUR D`ALENE  CLOUDY    37  36  93 CALM      30.21F
MULLAN PASS    LGT RAIN  38  38 100 SW9G18    30.23F VSB 1/4 WCI  31
$$



USA.gov is the U.S. government's official web portal to all federal, state and local government web resources and services.